[[{"header":{"parameterUnit":"m.s-1","parameterCategory":1,"la1":30.2991,"la2":30.254,"lo1":-89.0895,"lo2":-89.0444,"dy":0.0017,"dx":0.0017,"nx":28,"ny":28,"refTime":"2024-12-10T09:00:00:Z","depth":0,"parameterNumber":2,"parameterNumberName":"U-component_of_WINDS"},"data":[0,0,0,0,0,0,0,0,0,0,0,0,0,0,0,0,0,0,0,0,0,0,0,0,0,0,0,0,0,0,0,0,0,0,0,0,0,0,0,0,0,0,0,0,0,0,0,0,0,0,0,0,0,0,0,0,0,0,4.6075,4.6077,0,4.6245,4.6247,4.6249,4.6177,4.6173,4.6169,4.6165,4.6342,4.635,4.6359,0,0,0,0,0,0,0,0,0,0,0,0,0,4.5692,4.5699,4.6075,4.6077,4.6079,4.6245,4.6247,4.6249,4.6178,4.6173,4.6168,4.6163,4.6339,4.6349,4.636,0,0,0,0,0,0,0,0,0,0,0,0,0,4.586,4.5702,4.6075,4.6063,4.6064,4.6244,4.6247,4.625,4.6179,4.6173,4.6167,4.6161,4.6336,4.6348,4.6361,4.6563,0,0,4.64,4.6406,0,0,0,0,0,0,0,0,4.585,4.5874,4.6063,4.6065,4.6066,4.6183,4.6177,4.6355,4.618,4.6136,4.6165,4.6158,4.6295,4.631,4.6356,4.6571,4.6579,4.6401,4.6409,4.6415,4.6418,0,0,0,0,0,0,0,4.5839,4.5866,4.6142,4.6066,4.6068,4.6051,4.6068,4.621,4.6248,4.6139,4.6134,4.6155,4.6294,4.6344,4.6359,4.6581,4.6401,4.6412,4.642,4.6425,4.6971,4.6977,0,0,0,0,0,0,4.5826,4.5857,4.6137,4.6147,4.594,4.6063,4.6082,4.6152,4.6246,4.6254,4.616,4.6151,4.6325,4.6345,4.6365,4.6608,4.6414,4.6426,4.6434,4.6964,4.6972,4.698,0,0,0,0,0,0,4.5819,4.5852,4.613,4.6001,4.6035,4.6076,4.6155,4.6159,4.6208,4.6262,4.6268,4.6204,4.6321,4.6347,4.6514,4.6613,4.6432,4.6444,4.6956,4.6967,4.6976,4.7094,0,0,0,0,0,0,4.5808,4.585,4.5926,4.6003,4.6042,4.6276,4.6161,4.6166,4.623,4.622,4.6304,4.6312,4.6318,4.6495,4.6527,4.6627,4.6454,4.6947,4.6961,4.6973,4.7082,4.7107,4.7129,0,0,0,0,0,4.5794,4.5953,4.593,4.5965,4.6139,4.6281,4.6304,4.6306,4.6238,4.6316,4.635,4.631,4.6597,4.6513,4.6548,4.6654,4.6941,4.6957,4.6972,4.7071,4.7102,4.7129,0,0,0,0,0,0,4.5888,4.5963,4.5939,4.6127,4.6198,4.6269,4.6367,4.6339,4.6432,4.6418,4.6418,4.6438,4.661,4.6648,4.6554,4.6854,4.6759,4.6782,4.6822,4.6853,4.6876,4.6863,4.6464,0,0,0,0,0,4.5931,4.604,4.61,4.626,4.6297,4.6326,4.6388,4.6384,4.6458,4.6488,4.6535,4.6609,4.6716,4.6786,4.6887,4.7087,4.7104,4.7177,4.7201,4.722,4.724,4.7348,4.7381,4.703,4.703,4.703,0,0,4.602,4.6074,4.6143,4.628,4.6335,4.6448,4.6352,4.6476,4.6561,4.6507,4.6667,4.6704,4.6787,4.6971,4.7054,4.7008,4.734,4.7239,4.7254,4.7264,4.7367,4.74,4.743,4.7041,4.7039,4.7037,0,0,4.624,4.6292,4.6432,4.6488,4.6572,4.659,4.6623,4.6699,4.6721,4.6881,4.6843,4.6944,4.7128,4.7189,4.7244,4.7487,4.7453,4.752,4.7644,4.775,4.7777,4.7802,4.7889,4.792,4.754,4.754,4.754,0,4.6341,4.651,4.6507,4.6635,4.6696,4.6652,4.6793,4.6849,4.6962,4.7006,4.6952,4.7182,4.7235,4.7432,4.7491,4.7537,4.7576,4.751,4.7773,4.7798,4.7821,4.7903,4.7936,4.7548,4.7547,4.7546,4.7545,0,4.6629,4.6747,4.685,4.6958,4.7032,4.7166,4.7184,4.7259,4.7248,4.7272,4.7436,4.7498,4.7611,4.7657,4.7648,4.7854,4.7823,4.7772,4.7676,4.7862,4.7939,4.7971,4.7558,4.7556,4.7554,4.7552,0,0,4.6914,4.7019,4.7057,4.7106,4.7195,4.7286,4.7418,4.7527,4.7591,4.7671,4.7782,4.7938,4.7892,4.7954,4.7952,4.8044,4.8233,4.7982,4.7984,4.8026,4.8463,4.8501,4.8538,4.8211,4.8217,4.8222,4.8456,0,4.7141,4.7372,4.7373,4.7586,4.7695,4.7654,4.7769,4.7836,4.7863,4.7959,4.7988,4.8099,4.8029,4.8066,4.8156,4.8191,4.8321,4.8174,4.8315,4.832,4.8295,4.8579,4.8619,4.8837,4.8487,4.8492,4.8496,0,4.7437,4.7525,4.7748,4.782,4.7866,4.7969,4.807,4.8162,4.8238,4.8251,4.832,4.8304,4.8439,4.8339,4.8526,4.8426,4.8484,4.851,4.8518,4.8531,4.8419,4.86,4.8907,4.894,4.8544,4.854,4.8536,0,4.7623,4.7797,4.7952,4.7995,4.8084,4.8157,4.8198,4.8267,4.8333,4.8421,4.8464,4.8567,4.8623,4.8704,4.8716,4.8642,4.8904,4.8805,4.8918,4.8918,4.8975,4.8972,4.9296,4.9013,4.9012,4.9012,4.9011,0,4.7876,4.8014,4.8037,4.8133,4.8286,4.8287,4.844,4.8474,4.8536,4.8639,4.861,4.8707,4.8717,4.8817,4.8828,4.8981,4.9007,4.9021,4.9022,4.9024,4.9022,4.9061,4.9047,4.902,4.9018,4.9017,4.9015,0,4.811,4.813,4.8297,4.8367,4.8388,4.8498,4.8558,4.865,4.8673,4.8803,4.8833,4.887,4.8986,4.9006,4.9143,4.915,4.9333,4.9319,4.9308,4.9306,4.9418,4.9407,4.978,4.9829,4.9513,4.9516,4.9519,0,4.827,4.8375,4.8456,4.8522,4.8566,4.8673,4.8739,4.8744,4.8815,4.8909,4.899,4.9103,4.9193,4.9382,4.9421,4.9526,4.9514,4.9637,4.9529,4.9528,4.9516,4.9509,4.952,4.9658,4.9661,4.9664,4.9666,0,4.8553,4.8558,4.8654,4.8754,4.8834,4.8913,4.8989,4.9045,4.906,4.914,4.9258,4.9329,4.9468,4.9581,4.9685,4.9728,4.9701,4.97,4.9732,4.9734,4.9723,4.9731,4.9364,4.9691,4.9689,4.9687,4.9686,4.9685,4.8755,4.8846,4.8917,4.9025,4.9082,4.9153,4.9242,4.9276,4.9374,4.9487,4.9485,4.9614,4.9687,4.9824,4.9874,4.9975,4.9936,4.9982,4.9994,5.0005,5.0016,4.9707,4.9995,4.9994,4.9993,4.9993,4.9992,0,4.9036,4.9079,4.9179,4.9284,4.937,4.9335,4.9416,4.949,4.9604,4.9674,4.9764,4.9899,5.0009,5.0056,5.0164,5.0236,5.0226,5.0264,5.0259,5.0269,5.0045,5.0007,5.0271,5.027,5.027,5.027,5.027,5.027,4.9193,4.9345,4.9358,4.9539,4.9581,4.9707,4.9757,4.9822,4.9878,5.003,5.012,5.015,5.0211,5.0323,5.0422,5.0433,5.0474,5.0518,5.0524,5.0313,5.0285,5.0258,5.0222,5.0527,5.0527,5.0739,5.0741,5.0743]},{"header":{"parameterUnit":"m.s-1","parameterCategory":1,"la1":30.2991,"la2":30.254,"lo1":-89.0895,"lo2":-89.0444,"dy":0.0017,"dx":0.0017,"nx":28,"ny":28,"refTime":"2024-12-10T09:00:00:Z","depth":0,"parameterNumber":3,"parameterNumberName":"V-component_of_WINDS"},"data":[0,0,0,0,0,0,0,0,0,0,0,0,0,0,0,0,0,0,0,0,0,0,0,0,0,0,0,0,0,0,0,0,0,0,0,0,0,0,0,0,0,0,0,0,0,0,0,0,0,0,0,0,0,0,0,0,0,0,-1.614,-1.6141,0,-1.6262,-1.6263,-1.6264,-1.626,-1.6258,-1.6257,-1.6255,-1.6384,-1.6389,-1.6394,0,0,0,0,0,0,0,0,0,0,0,0,0,-1.5908,-1.5912,-1.6139,-1.6141,-1.6143,-1.6261,-1.6263,-1.6265,-1.626,-1.6258,-1.6256,-1.6254,-1.6382,-1.6388,-1.6394,0,0,0,0,0,0,0,0,0,0,0,0,0,-1.6017,-1.5913,-1.6139,-1.6155,-1.6157,-1.6261,-1.6263,-1.6265,-1.6261,-1.6258,-1.6256,-1.6253,-1.638,-1.6388,-1.6395,-1.6493,0,0,-1.6418,-1.6421,0,0,0,0,0,0,0,0,-1.6011,-1.6025,-1.6151,-1.6154,-1.6157,-1.6243,-1.6228,-1.6342,-1.6261,-1.6222,-1.6255,-1.6252,-1.6339,-1.635,-1.6379,-1.6499,-1.6504,-1.6419,-1.6423,-1.6427,-1.6429,0,0,0,0,0,0,0,-1.6003,-1.602,-1.6188,-1.6153,-1.6156,-1.6157,-1.617,-1.625,-1.6294,-1.6225,-1.6225,-1.6239,-1.6341,-1.6371,-1.6382,-1.6506,-1.6419,-1.6425,-1.643,-1.6433,-1.6716,-1.6718,0,0,0,0,0,0,-1.5992,-1.6014,-1.6184,-1.6192,-1.6076,-1.6163,-1.6177,-1.6218,-1.6293,-1.6301,-1.6241,-1.6239,-1.636,-1.6373,-1.6386,-1.6507,-1.6426,-1.6434,-1.6438,-1.6713,-1.6716,-1.6719,0,0,0,0,0,0,-1.5987,-1.6007,-1.6179,-1.6103,-1.6125,-1.617,-1.6215,-1.6222,-1.6253,-1.6305,-1.6313,-1.6265,-1.6358,-1.6376,-1.6467,-1.6512,-1.6437,-1.6444,-1.6709,-1.6714,-1.6718,-1.6749,0,0,0,0,0,0,-1.598,-1.6005,-1.6041,-1.6104,-1.6129,-1.6256,-1.6218,-1.6226,-1.6265,-1.6263,-1.6329,-1.6337,-1.6358,-1.6455,-1.6474,-1.6521,-1.645,-1.6705,-1.6711,-1.6716,-1.6745,-1.6754,-1.6763,0,0,0,0,0,-1.5972,-1.6046,-1.6043,-1.6064,-1.6175,-1.6259,-1.6273,-1.6294,-1.6269,-1.6307,-1.6341,-1.6335,-1.6503,-1.6465,-1.6486,-1.6535,-1.6703,-1.6709,-1.6716,-1.674,-1.6752,-1.6763,0,0,0,0,0,0,-1.5989,-1.6054,-1.6052,-1.6148,-1.6198,-1.6258,-1.6306,-1.6306,-1.6364,-1.636,-1.6384,-1.6399,-1.6491,-1.6522,-1.6478,-1.6635,-1.66,-1.6611,-1.6612,-1.6623,-1.6632,-1.6624,-1.6456,0,0,0,0,0,-1.6003,-1.6064,-1.6119,-1.6198,-1.6223,-1.626,-1.6297,-1.6309,-1.6362,-1.6383,-1.6424,-1.6477,-1.6542,-1.6584,-1.6647,-1.6749,-1.6765,-1.6794,-1.6803,-1.681,-1.682,-1.6879,-1.6893,-1.6742,-1.6741,-1.6741,0,0,-1.6035,-1.6078,-1.6115,-1.6203,-1.6243,-1.6307,-1.6278,-1.6347,-1.6396,-1.6394,-1.6483,-1.6515,-1.6575,-1.6673,-1.6718,-1.6702,-1.6865,-1.6818,-1.6824,-1.683,-1.6887,-1.6902,-1.6914,-1.6746,-1.6745,-1.6745,0,0,-1.6125,-1.6163,-1.6234,-1.6275,-1.6335,-1.636,-1.6377,-1.6438,-1.6458,-1.6547,-1.6548,-1.6607,-1.6718,-1.6762,-1.6799,-1.6908,-1.6906,-1.6927,-1.6976,-1.7033,-1.7045,-1.7056,-1.7097,-1.7111,-1.6937,-1.6937,-1.6937,0,-1.6157,-1.6253,-1.6271,-1.6341,-1.6381,-1.6382,-1.6455,-1.6494,-1.6573,-1.6601,-1.6581,-1.6722,-1.6762,-1.6872,-1.6898,-1.6927,-1.695,-1.6921,-1.7041,-1.7052,-1.7063,-1.7102,-1.7118,-1.6939,-1.6939,-1.6939,-1.6939,0,-1.629,-1.6356,-1.6407,-1.6482,-1.6527,-1.6599,-1.663,-1.6674,-1.6682,-1.6709,-1.6801,-1.685,-1.6924,-1.695,-1.6959,-1.7062,-1.705,-1.7036,-1.7001,-1.7079,-1.7117,-1.7132,-1.6943,-1.6942,-1.6941,-1.6941,0,0,-1.6395,-1.6479,-1.6498,-1.6533,-1.66,-1.6653,-1.6725,-1.6796,-1.6834,-1.6889,-1.6952,-1.7046,-1.7034,-1.7076,-1.709,-1.7139,-1.7226,-1.7119,-1.7121,-1.7139,-1.7345,-1.7357,-1.7374,-1.7224,-1.7227,-1.723,-1.734,0,-1.6493,-1.662,-1.664,-1.6753,-1.6816,-1.6818,-1.6882,-1.6931,-1.6959,-1.7018,-1.7049,-1.7116,-1.7094,-1.7119,-1.7169,-1.7204,-1.7268,-1.7197,-1.7286,-1.7289,-1.7272,-1.7393,-1.7405,-1.7507,-1.7355,-1.7358,-1.7359,0,-1.6626,-1.6683,-1.6802,-1.6862,-1.6889,-1.6946,-1.7014,-1.7069,-1.7126,-1.7143,-1.719,-1.7199,-1.7277,-1.7238,-1.7347,-1.7298,-1.7336,-1.7359,-1.7364,-1.7374,-1.733,-1.7409,-1.754,-1.7556,-1.7382,-1.738,-1.7379,0,-1.6693,-1.6799,-1.6885,-1.6914,-1.6986,-1.7027,-1.7059,-1.7113,-1.7155,-1.7215,-1.7243,-1.7311,-1.7349,-1.7403,-1.7431,-1.7399,-1.7539,-1.7501,-1.7557,-1.7557,-1.7587,-1.7585,-1.7729,-1.7609,-1.7608,-1.7608,-1.7608,0,-1.6802,-1.6875,-1.6916,-1.6969,-1.7052,-1.7074,-1.7156,-1.7188,-1.7237,-1.7297,-1.7303,-1.736,-1.7392,-1.7455,-1.7477,-1.7566,-1.7582,-1.76,-1.7605,-1.76,-1.7599,-1.7627,-1.7621,-1.7612,-1.7611,-1.761,-1.761,0,-1.6891,-1.6921,-1.7015,-1.7075,-1.7092,-1.7151,-1.7204,-1.7257,-1.7284,-1.7361,-1.738,-1.7424,-1.7498,-1.7531,-1.7622,-1.7637,-1.7739,-1.7738,-1.772,-1.7722,-1.7777,-1.7772,-1.7945,-1.797,-1.7831,-1.7832,-1.7833,0,-1.696,-1.7016,-1.7083,-1.7123,-1.7156,-1.7221,-1.7264,-1.7289,-1.7334,-1.7404,-1.7449,-1.7523,-1.7584,-1.7703,-1.7744,-1.7815,-1.7817,-1.7873,-1.7828,-1.7822,-1.7821,-1.7818,-1.7826,-1.7882,-1.7883,-1.7884,-1.7885,0,-1.7079,-1.7092,-1.7152,-1.7219,-1.727,-1.7324,-1.7377,-1.741,-1.7444,-1.7495,-1.757,-1.7617,-1.7711,-1.7785,-1.7859,-1.7894,-1.7897,-1.7899,-1.7916,-1.7913,-1.7901,-1.791,-1.7744,-1.7895,-1.7894,-1.7893,-1.7893,-1.7893,-1.7162,-1.7213,-1.7268,-1.7337,-1.7379,-1.7429,-1.7482,-1.7516,-1.7578,-1.7656,-1.7667,-1.7748,-1.7806,-1.7905,-1.7944,-1.8009,-1.7996,-1.802,-1.8027,-1.8033,-1.8037,-1.7888,-1.8022,-1.8022,-1.8022,-1.8022,-1.8022,0,-1.7284,-1.732,-1.7382,-1.7456,-1.751,-1.7505,-1.7565,-1.7611,-1.7682,-1.7735,-1.7794,-1.7883,-1.7955,-1.8003,-1.8077,-1.812,-1.8124,-1.8139,-1.8137,-1.8146,-1.8044,-1.8023,-1.8136,-1.8135,-1.8135,-1.8135,-1.8135,-1.8135,-1.7354,-1.7441,-1.746,-1.7568,-1.7604,-1.7683,-1.7717,-1.7764,-1.7807,-1.7904,-1.7964,-1.7994,-1.8046,-1.8124,-1.8192,-1.8204,-1.8232,-1.8249,-1.8261,-1.8165,-1.8153,-1.8142,-1.8122,-1.8254,-1.8254,-1.8358,-1.8359,-1.836]}]]